Regional Weather Roundup
Issued by NWS

Home | Current Version | Previous Version | Graphics & Text | Print | Product List | Glossary On
Versions: 1 2 3 4 5 6 7 8 9 10 11 12 13 14 15 16 17 18 19 20 21 22 23 24 25 26 27 28 29 30 31 32 33 34 35 36 37 38 39 40 41 42 43 44 45 46 47 48 49 50
000
ASUS43 KFSD 290510
RWRSD

WEATHER ROUNDUP FOR SOUTH DAKOTA
NATIONAL WEATHER SERVICE SIOUX FALLS SD
1200 AM CDT FRI APR 29 2016

NOTE: "FAIR" INDICATES FEW OR NO CLOUDS BELOW 12,000 FEET WITH NO
SIGNIFICANT WEATHER AND/OR OBSTRUCTIONS TO VISIBILITY.


SDZ001>005-009-010-012>017-290600-
NORTHWEST AND NORTH CENTRAL SOUTH DAKOTA

CITY           SKY/WX    TMP DP  RH WIND       PRES   REMARKS
BUFFALO          N/A     38  34  85 NW5       30.08R
FAITH            N/A     36  30  79 W5        30.13S
MOBRIDGE       CLOUDY    47  40  76 CALM      30.11S
$$

SDZ012>016-024>037-041>051-057-063-072>074-290600-
SOUTHWEST AND SOUTH CENTRAL SOUTH DAKOTA

CITY           SKY/WX    TMP DP  RH WIND       PRES   REMARKS
RAPID CTY ARPT CLOUDY    37  34  89 N3        30.13F
PIERRE         CLOUDY    43  37  79 N5        30.12F
CUSTER         FOG       31  29  92 CALM      30.07F VSB 1/2
ELLSWORTH AFB  CLOUDY    37  37 100 N5        30.12
PHILIP         CLOUDY    40  35  83 W5        30.14S
PINE RIDGE     CLOUDY    37  34  89 CALM      30.13S
WINNER         CLOUDY    43  38  82 CALM      30.13R
$$

SDZ004>011-016>023-039-040-290600-
NORTHEAST SOUTH DAKOTA

CITY           SKY/WX    TMP DP  RH WIND       PRES   REMARKS
ABERDEEN       CLOUDY    42  36  79 S5        30.15S
WATERTOWN      CLOUDY    39  36  89 NE5       30.11F
BROOKINGS      CLOUDY    38  36  92 E5        30.11F
SISSETON         N/A     42  37  82 SW5       30.14S
$$

SDZ017-020-022-023-036>040-048>070-290600-
SOUTHEAST SOUTH DAKOTA

CITY           SKY/WX    TMP DP  RH WIND       PRES   REMARKS
SIOUX FALLS    DRIZZLE   38  36  92 N6        30.12R
HURON          CLOUDY    39  36  89 S7        30.13F
CHAMBERLAIN    CLOUDY    42  40  90 N5        30.13R
MITCHELL       CLOUDY    40  36  86 NE5       30.14R
YANKTON        CLOUDY    41  37  87 NE5       30.12R
$$

ABBREVIATIONS USED IN REMARKS
   TC - TEMPERATURE IN CELSIUS
  WCI - WIND CHILL INDEX
   HX - HEAT INDEX
  VSB - VISIBILITY




USA.gov is the U.S. government's official web portal to all federal, state and local government web resources and services.